This is the latest recevied weather packets stored in our database for station/object KY4LEX. If no packets are shown the sender has not sent any weather packets the latest 1 day(s).
| Time | Temp. | Humidity | Pressure | Rain* | Wind** | Luminosity | Snow |
|---|---|---|---|---|---|---|---|
| 1778066054 | 10° C | 97% | 1014.6 hPa | 0 mm | - | 11 W/m² | - |
| 1778064841 | 10.56° C | 97% | 1013.9 hPa | 0 mm | - | 3 W/m² | - |
| 1778064236 | 10.56° C | 97% | 1013.9 hPa | 0 mm | - | 1 W/m² | - |
| 1778063631 | 10.56° C | 97% | 1013.7 hPa | 0 mm | - | 0 W/m² | - |
| 1778063328 | 10.56° C | 97% | 1013.8 hPa | 0 mm | - | 0 W/m² | - |
| 1778063026 | 11.11° C | 97% | 1013.5 hPa | 0 mm | - | 0 W/m² | - |
| 1778062723 | 11.11° C | 97% | 1013.4 hPa | 0 mm | - | 0 W/m² | - |
| 1778062419 | 11.11° C | 97% | 1013.5 hPa | 0 mm | - | 0 W/m² | - |
| 1778062117 | 11.67° C | 98% | 1013.2 hPa | 0 mm | - | 0 W/m² | - |
| 1778061815 | 12.22° C | 98% | 1012.9 hPa | 1.78 mm | - | 0 W/m² | - |
| 1778061513 | 12.78° C | 98% | 1012.7 hPa | 1.78 mm | - | 0 W/m² | - |
| 1778061210 | 13.89° C | 99% | 1012.5 hPa | 0 mm | - | 0 W/m² | - |
| 1778060000 | 13.89° C | 98% | 1012.2 hPa | 4.32 mm | - | 0 W/m² | - |
| 1778059698 | 13.89° C | 99% | 1012.4 hPa | 6.1 mm | - | 0 W/m² | - |
| 1778058488 | 14.44° C | 99% | 1012.6 hPa | 12.7 mm | - | 0 W/m² | - |
| 1778057881 | 15° C | 99% | 1012.3 hPa | 6.1 mm | - | 0 W/m² | - |
| 1778057274 | 15° C | 99% | 1012.2 hPa | 0 mm | - | 0 W/m² | - |
| 1778055456 | 15° C | 98% | 1011.6 hPa | 6.6 mm | - | 0 W/m² | - |
| 1778055153 | 15° C | 98% | 1011.4 hPa | 1.78 mm | - | 0 W/m² | - |
| 1778054547 | 15° C | 98% | 1011.5 hPa | 3.05 mm | - | 0 W/m² | - |
| 1778053942 | 15° C | 98% | 1011.7 hPa | 7.11 mm | - | 0 W/m² | - |
| 1778053034 | 15° C | 98% | 1011.4 hPa | 1.78 mm | - | 0 W/m² | - |
| 1778052731 | 15° C | 98% | 1011.6 hPa | 1.27 mm | - | 0 W/m² | - |
| 1778052428 | 15° C | 98% | 1011.4 hPa | 1.27 mm | - | 0 W/m² | - |
| 1778051823 | 15° C | 97% | 1011.4 hPa | 3.05 mm | - | 0 W/m² | - |
* Rain latest hour (hover to see other rain measurements)
** Current wind speed in m/s (hover to see current wind gust speed)